Waupaca, WI

8:26 PM CST on November 14, 2019 (GMT -0600)
Waupaca Municipal

Weather History for KPCZ - September, 2019

Change the Weather History Date:

Monday, September 9, 2019

  Actual Average Record
Temperature  
Mean Temperature 59 °F -  
Max Temperature 66 °F 75 °F 96 °F (1955)
Min Temperature 52 °F 52 °F 38 °F (1969)
Degree Days  
Heating Degree Days 6    
Growing Degree Days 9 (Base 50)    
Moisture  
Dew Point 57 °F    
Average Humidity 89    
Maximum Humidity 96    
Minimum Humidity 74    
Precipitation  
Precipitation 0.31 in - - ()
Sea Level Pressure  
Sea Level Pressure 30.16 in    
Wind  
Wind Speed 5 mph (East)    
Max Wind Speed 14 mph    
Max Gust Speed 29 mph    
Visibility 9 miles    
Events Rain    
Averages and records for this station are not official NWS values.
T = Trace of Precipitation, MM = Missing Value Source: NWS Daily Summary

Daily Weather History Graph

Daily Weather History Graph

Search for Another Location

Airport or City:

Astronomy

Sep. 09, 2019 Rise Set
Actual Time 6:27 AM CDT 7:18 PM CDT
Civil Twilight 5:58 AM CDT 7:47 PM CDT
Nautical Twilight 5:23 AM CDT 8:22 PM CDT
Astronomical Twilight 4:46 AM CDT 8:58 PM CDT
Moon 5:23 PM CDT (9/9) 1:48 AM CDT (9/9)
Length of Visible Light 13h 49m
Length of Day
12h 50m
Waxing Gibbous, 83% of the Moon is Illuminated
Sep 9
Waxing Gibbous
Sep 13
Full
Sep 21
Last Quarter
Sep 28
New
Oct 5
First Quarter

Hourly Weather History & Observations

Time (CDT) Temp. Dew Point Humidity Pressure Visibility Wind Dir Wind Speed Gust Speed Precip Events Conditions
12:15 AM 55.6 °F 52.0 °F 88% 30.20 in 10.0 mi Calm Calm - N/A   Mostly Cloudy
12:35 AM 54.5 °F 51.4 °F 89% 30.20 in 10.0 mi Calm Calm - N/A   Clear
12:55 AM 54.0 °F 51.3 °F 91% 30.20 in 10.0 mi NE 3.5 mph - N/A   Clear
1:15 AM 53.6 °F 50.9 °F 91% 30.21 in 10.0 mi Calm Calm - N/A   Clear
1:35 AM 52.7 °F 50.4 °F 92% 30.22 in 10.0 mi NNW 3.5 mph - N/A   Scattered Clouds
1:55 AM 53.6 °F 51.8 °F 94% 30.22 in 10.0 mi Calm Calm - N/A   Overcast
2:15 AM 53.6 °F 52.0 °F 94% 30.22 in 10.0 mi Calm Calm - N/A   Overcast
2:35 AM 54.5 °F 52.2 °F 92% 30.22 in 10.0 mi Calm Calm - N/A   Overcast
2:55 AM 54.5 °F 52.2 °F 92% 30.21 in 10.0 mi Calm Calm - N/A   Overcast
3:15 AM 55.2 °F 52.7 °F 91% 30.22 in 10.0 mi Calm Calm - N/A   Overcast
3:55 AM 55.4 °F 52.3 °F 89% 30.21 in 10.0 mi North 3.5 mph - N/A   Overcast
4:15 AM 55.4 °F 52.7 °F 91% 30.22 in 10.0 mi NNE 3.5 mph - N/A   Overcast
4:35 AM 55.8 °F 52.7 °F 89% 30.22 in 10.0 mi NNE 3.5 mph - N/A   Overcast
4:55 AM 55.6 °F 52.7 °F 90% 30.22 in 10.0 mi NNE 3.5 mph - N/A   Overcast
5:15 AM 55.6 °F 52.7 °F 90% 30.22 in 10.0 mi Calm Calm - N/A   Overcast
5:35 AM 55.8 °F 53.2 °F 91% 30.22 in 10.0 mi Calm Calm - N/A   Overcast
5:55 AM 55.8 °F 53.2 °F 91% 30.22 in 10.0 mi NNE 4.6 mph - N/A   Overcast
6:15 AM 55.8 °F 53.6 °F 92% 30.22 in 10.0 mi NNE 4.6 mph - N/A   Overcast
6:35 AM 55.6 °F 53.6 °F 93% 30.22 in 10.0 mi NNE 3.5 mph - N/A   Overcast
6:55 AM 55.6 °F 53.6 °F 93% 30.22 in 10.0 mi NE 3.5 mph - N/A   Overcast
7:35 AM 56.3 °F 53.8 °F 91% 30.22 in 10.0 mi Calm Calm - N/A   Overcast
7:55 AM 56.8 °F 54.3 °F 91% 30.23 in 10.0 mi NE 3.5 mph - N/A   Overcast
8:15 AM 57.6 °F 54.5 °F 90% 30.23 in 10.0 mi ENE 3.5 mph - N/A   Overcast
8:35 AM 58.3 °F 55.0 °F 89% 30.22 in 10.0 mi ENE 4.6 mph - N/A   Overcast
8:55 AM 58.6 °F 55.4 °F 89% 30.22 in 10.0 mi East 6.9 mph - N/A   Overcast
9:15 AM 59.7 °F 56.5 °F 89% 30.22 in 10.0 mi East 5.8 mph - N/A   Overcast
9:35 AM 60.4 °F 56.8 °F 88% 30.22 in 10.0 mi East 4.6 mph - N/A   Overcast
9:55 AM 61.9 °F 58.1 °F 87% 30.22 in 10.0 mi East 6.9 mph - N/A   Overcast
10:15 AM 62.4 °F 58.6 °F 87% 30.22 in 10.0 mi East 8.1 mph - N/A   Overcast
10:35 AM 64.0 °F 59.4 °F 85% 30.22 in 10.0 mi ESE 8.1 mph - N/A   Overcast
10:55 AM 65.1 °F 59.4 °F 82% 30.21 in 10.0 mi East 10.4 mph - N/A   Overcast
11:15 AM 66.2 °F 58.3 °F 76% 30.21 in 10.0 mi ESE 12.7 mph 17.3 mph N/A   Overcast
11:35 AM 65.7 °F 57.2 °F 74% 30.21 in 10.0 mi East 13.8 mph - N/A   Overcast
11:55 AM 65.7 °F 57.2 °F 74% 30.21 in 10.0 mi ESE 10.4 mph - N/A   Overcast
12:15 PM 66.2 °F 57.9 °F 75% 30.21 in 10.0 mi ESE 11.5 mph - N/A   Overcast
12:35 PM 65.5 °F 57.7 °F 76% 30.21 in 10.0 mi ESE 12.7 mph - N/A   Overcast
12:55 PM 65.7 °F 57.6 °F 75% 30.20 in 10.0 mi ESE 12.7 mph - N/A   Overcast
1:15 PM 65.3 °F 57.0 °F 75% 30.19 in 10.0 mi ESE 10.4 mph - N/A   Overcast
1:35 PM 65.3 °F 57.4 °F 76% 30.18 in 10.0 mi East 12.7 mph 18.4 mph N/A   Overcast
1:55 PM 65.7 °F 57.7 °F 76% 30.18 in 10.0 mi East 10.4 mph 17.3 mph N/A   Overcast
2:15 PM 65.3 °F 57.0 °F 75% 30.16 in 10.0 mi East 12.7 mph 17.3 mph N/A   Overcast
2:35 PM 65.7 °F 57.4 °F 75% 30.15 in 10.0 mi East 9.2 mph - N/A   Overcast
2:55 PM 65.7 °F 57.2 °F 74% 30.16 in 10.0 mi East 10.4 mph - N/A   Overcast
3:15 PM 64.6 °F 57.7 °F 78% 30.16 in 10.0 mi East 5.8 mph - N/A   Overcast
3:35 PM 63.3 °F 59.7 °F 88% 30.14 in 4.0 mi East 10.4 mph - N/A Rain Rain
3:55 PM 64.0 °F 61.0 °F 90% 30.15 in 10.0 mi ESE 8.1 mph - 0.01 in Rain Light Rain
4:15 PM 63.1 °F 60.1 °F 90% 30.14 in 10.0 mi East 9.2 mph - N/A   Overcast
4:35 PM 62.2 °F 59.9 °F 92% 30.13 in 10.0 mi East 13.8 mph 17.3 mph N/A   Overcast
5:15 PM 62.2 °F 60.3 °F 93% 30.11 in 10.0 mi East 8.1 mph - 0.01 in   Overcast
5:35 PM 62.2 °F 60.4 °F 94% 30.11 in 10.0 mi ENE 6.9 mph - 0.01 in   Overcast
5:55 PM 62.2 °F 60.8 °F 95% 30.09 in 7.0 mi ENE 6.9 mph - 0.01 in   Overcast
6:15 PM 62.2 °F 61.0 °F 96% 30.09 in 7.0 mi East 6.9 mph - N/A   Overcast
6:35 PM 62.2 °F 61.0 °F 96% 30.08 in 7.0 mi East 9.2 mph - N/A   Overcast
6:55 PM 62.2 °F 60.8 °F 95% 30.08 in 7.0 mi East 9.2 mph - N/A   Overcast
7:15 PM 62.2 °F 60.8 °F 95% 30.08 in 7.0 mi East 9.2 mph - N/A   Overcast
7:35 PM 62.1 °F 60.6 °F 95% 30.06 in 7.0 mi East 8.1 mph - N/A   Overcast
7:55 PM 62.1 °F 60.4 °F 94% 30.07 in 7.0 mi East 8.1 mph - N/A   Overcast
8:15 PM 62.2 °F 60.6 °F 94% 30.06 in 7.0 mi ESE 8.1 mph - N/A   Overcast
8:35 PM 62.2 °F 60.8 °F 95% 30.04 in 7.0 mi ESE 9.2 mph - N/A   Overcast
8:55 PM 62.2 °F 60.8 °F 95% 30.04 in 10.0 mi SE 6.9 mph - N/A   Overcast
9:15 PM 62.4 °F 60.8 °F 94% 30.03 in 10.0 mi ESE 6.9 mph - N/A   Overcast
9:35 PM 62.6 °F 61.2 °F 95% 30.02 in 10.0 mi ESE 8.1 mph - N/A   Overcast
9:55 PM 63.1 °F 61.5 °F 94% 30.02 in 10.0 mi SE 9.2 mph - N/A   Overcast
10:15 PM 63.5 °F 61.7 °F 94% 30.01 in 10.0 mi SE 8.1 mph - N/A   Overcast
10:35 PM 63.9 °F 62.1 °F 94% 30.01 in 7.0 mi SE 4.6 mph - N/A   Mostly Cloudy
10:55 PM 64.0 °F 62.2 °F 94% 30.02 in 2.0 mi SE 6.9 mph 28.8 mph 0.11 in Rain Heavy Rain
11:15 PM 64.8 °F 63.5 °F 96% 30.04 in 7.0 mi SSW 6.9 mph - 0.08 in Rain Light Rain
11:35 PM 65.5 °F 64.2 °F 96% 30.03 in 7.0 mi SSE 9.2 mph - 0.13 in Rain Rain
11:55 PM 65.3 °F 63.9 °F 95% 30.01 in 10.0 mi SSE 6.9 mph - 0.18 in Rain Rain